TimeEST,TemperatureF,Dew PointF,Humidity,Sea Level PressureIn,VisibilityMPH,Wind Direction,Wind SpeedMPH,Gust SpeedMPH,PrecipitationIn,Events,Conditions,WindDirDegrees,DateUTC
12:15 AM,35.6,33.8,93,30.07,5.0,SSE,8.1,-,0.01,Rain,Rain,150,2013-02-22 05:15:00
12:35 AM,35.6,35.6,100,30.07,7.0,SSE,6.9,16.1,0.01,Rain,Light Rain,160,2013-02-22 05:35:00
12:55 AM,35.6,35.6,100,30.08,7.0,SSE,9.2,16.1,0.02,Rain,Light Rain,160,2013-02-22 05:55:00
1:15 AM,35.6,35.6,100,30.08,7.0,South,11.5,18.4,0.01,Rain,Light Rain,170,2013-02-22 06:15:00
1:35 AM,35.6,35.6,100,30.01,3.0,SSE,11.5,23.0,0.03,Rain,Light Rain,160,2013-02-22 06:35:00
1:55 AM,35.6,35.6,100,30.02,7.0,SSE,17.3,24.2,0.03,,Overcast,160,2013-02-22 06:55:00
2:15 AM,37.4,37.4,100,30.02,5.0,SSE,15.0,25.3,N/A,,Overcast,160,2013-02-22 07:15:00
2:35 AM,37.4,37.4,100,30.01,4.0,SSE,11.5,18.4,N/A,,Overcast,160,2013-02-22 07:35:00
2:55 AM,37.4,37.4,100,30.00,4.0,SSE,12.7,19.6,N/A,,Overcast,160,2013-02-22 07:55:00
3:15 AM,39.2,39.2,100,29.98,4.0,SSE,15.0,25.3,N/A,,Overcast,160,2013-02-22 08:15:00
3:35 AM,39.2,39.2,100,29.97,5.0,SSE,17.3,24.2,N/A,,Overcast,160,2013-02-22 08:35:00
3:55 AM,39.2,39.2,100,29.98,5.0,SSE,13.8,20.7,N/A,,Overcast,160,2013-02-22 08:55:00
4:15 AM,39.2,39.2,100,29.98,3.0,South,16.1,23.0,0.02,Rain,Rain,170,2013-02-22 09:15:00
4:35 AM,41.0,41.0,100,29.96,7.0,SSE,19.6,27.6,0.02,,Overcast,160,2013-02-22 09:35:00
5:15 AM,41.0,41.0,100,29.97,7.0,SSE,13.8,20.7,N/A,,Overcast,160,2013-02-22 10:15:00
5:35 AM,41.0,41.0,100,29.98,7.0,South,15.0,20.7,N/A,,Overcast,170,2013-02-22 10:35:00
5:55 AM,41.0,41.0,100,29.98,7.0,SSE,15.0,21.9,N/A,,Overcast,160,2013-02-22 10:55:00
6:15 AM,41.0,41.0,100,29.98,7.0,SSE,19.6,25.3,N/A,,Overcast,160,2013-02-22 11:15:00
6:35 AM,41.0,41.0,100,29.98,7.0,South,13.8,26.5,N/A,,Overcast,180,2013-02-22 11:35:00
7:15 AM,41.0,41.0,100,30.01,5.0,South,10.4,17.3,N/A,,Overcast,170,2013-02-22 12:15:00
7:35 AM,41.0,41.0,100,30.02,4.0,South,13.8,25.3,N/A,,Overcast,180,2013-02-22 12:35:00
7:55 AM,41.0,41.0,100,30.03,7.0,South,9.2,-,N/A,,Overcast,180,2013-02-22 12:55:00
8:15 AM,41.0,41.0,100,30.02,5.0,South,11.5,16.1,N/A,,Overcast,180,2013-02-22 13:15:00
8:35 AM,41.0,41.0,100,30.02,5.0,South,17.3,23.0,N/A,,Overcast,170,2013-02-22 13:35:00
8:55 AM,42.8,37.4,81,30.03,3.0,South,11.5,17.3,N/A,,Overcast,170,2013-02-22 13:55:00
9:15 AM,42.8,37.4,81,30.03,4.0,South,15.0,20.7,N/A,,Mostly Cloudy,180,2013-02-22 14:15:00
9:35 AM,42.8,37.4,81,30.03,4.0,South,11.5,21.9,N/A,,Haze,170,2013-02-22 14:35:00
9:55 AM,44.6,39.2,81,30.03,2.5,South,12.7,19.6,N/A,,Haze,170,2013-02-22 14:55:00
10:15 AM,44.6,39.2,81,30.03,2.0,South,17.3,23.0,N/A,,Haze,180,2013-02-22 15:15:00
10:35 AM,44.6,39.2,81,30.03,2.5,South,16.1,21.9,N/A,,Haze,170,2013-02-22 15:35:00
10:55 AM,44.6,39.2,81,30.03,2.5,South,12.7,20.7,N/A,,Haze,180,2013-02-22 15:55:00
11:15 AM,46.4,41.0,81,30.03,2.5,South,15.0,20.7,N/A,,Haze,170,2013-02-22 16:15:00
11:35 AM,46.4,41.0,81,30.04,3.0,South,13.8,19.6,N/A,,Haze,170,2013-02-22 16:35:00
11:55 AM,46.4,41.0,81,30.04,2.5,South,12.7,23.0,N/A,,Haze,170,2013-02-22 16:55:00
12:15 PM,48.2,41.0,76,30.03,5.0,South,12.7,-,N/A,,Haze,190,2013-02-22 17:15:00
12:35 PM,50.0,42.8,76,30.03,3.0,South,13.8,17.3,N/A,,Haze,180,2013-02-22 17:35:00
12:55 PM,50.0,42.8,76,30.02,5.0,South,11.5,17.3,N/A,,Haze,180,2013-02-22 17:55:00
1:15 PM,51.8,42.8,71,30.02,5.0,South,11.5,-,N/A,,Haze,170,2013-02-22 18:15:00
1:35 PM,53.6,44.6,72,30.01,5.0,SSW,15.0,18.4,N/A,,Haze,200,2013-02-22 18:35:00
1:55 PM,53.6,44.6,72,30.01,7.0,South,15.0,21.9,N/A,,Mostly Cloudy,170,2013-02-22 18:55:00
2:15 PM,53.6,44.6,72,30.01,10.0,South,13.8,21.9,N/A,,Mostly Cloudy,180,2013-02-22 19:15:00
2:35 PM,53.6,44.6,72,30.01,7.0,South,15.0,24.2,N/A,,Mostly Cloudy,170,2013-02-22 19:35:00
2:55 PM,51.8,42.8,71,30.01,7.0,South,16.1,24.2,N/A,,Overcast,180,2013-02-22 19:55:00
3:15 PM,51.8,42.8,71,30.00,7.0,South,12.7,19.6,N/A,,Overcast,170,2013-02-22 20:15:00
3:35 PM,51.8,42.8,71,30.01,7.0,South,12.7,20.7,N/A,,Overcast,190,2013-02-22 20:35:00
3:55 PM,51.8,42.8,71,30.02,7.0,South,10.4,19.6,N/A,,Overcast,180,2013-02-22 20:55:00
4:15 PM,51.8,42.8,71,30.01,4.0,South,10.4,-,N/A,,Haze,190,2013-02-22 21:15:00
4:35 PM,51.8,42.8,71,30.00,7.0,South,10.4,16.1,N/A,,Overcast,180,2013-02-22 21:35:00
4:55 PM,51.8,42.8,71,29.99,7.0,South,11.5,18.4,N/A,,Scattered Clouds,180,2013-02-22 21:55:00
5:15 PM,50.0,42.8,76,30.00,5.0,South,8.1,-,N/A,,Haze,170,2013-02-22 22:15:00
5:35 PM,50.0,42.8,76,30.00,7.0,South,10.4,16.1,N/A,,Mostly Cloudy,180,2013-02-22 22:35:00
5:55 PM,50.0,42.8,76,30.00,5.0,South,10.4,-,N/A,,Haze,180,2013-02-22 22:55:00
6:15 PM,50.0,42.8,76,30.00,7.0,South,8.1,-,N/A,,Overcast,180,2013-02-22 23:15:00
6:35 PM,50.0,42.8,76,30.00,7.0,South,6.9,-,N/A,,Mostly Cloudy,190,2013-02-22 23:35:00
6:55 PM,50.0,42.8,76,30.00,10.0,South,6.9,-,N/A,,Mostly Cloudy,190,2013-02-22 23:55:00
7:15 PM,50.0,42.8,76,29.99,10.0,South,5.8,-,N/A,,Overcast,180,2013-02-23 00:15:00
7:35 PM,50.0,42.8,76,30.01,7.0,South,6.9,-,N/A,,Overcast,170,2013-02-23 00:35:00
7:55 PM,50.0,42.8,76,30.01,10.0,South,8.1,-,N/A,,Overcast,170,2013-02-23 00:55:00
8:15 PM,50.0,42.8,76,30.00,10.0,South,6.9,-,N/A,,Overcast,180,2013-02-23 01:15:00
8:35 PM,50.0,42.8,76,30.00,10.0,South,4.6,-,N/A,,Mostly Cloudy,170,2013-02-23 01:35:00
8:55 PM,48.2,42.8,82,30.01,10.0,South,3.5,-,N/A,,Mostly Cloudy,170,2013-02-23 01:55:00
9:15 PM,46.4,42.8,87,30.01,7.0,Calm,Calm,-,N/A,,Mostly Cloudy,0,2013-02-23 02:15:00
9:35 PM,46.4,42.8,87,30.01,7.0,Calm,Calm,-,N/A,,Mostly Cloudy,0,2013-02-23 02:35:00
9:55 PM,48.2,42.8,82,30.02,10.0,SSE,3.5,-,N/A,,Mostly Cloudy,150,2013-02-23 02:55:00
10:15 PM,46.4,42.8,87,30.01,7.0,Calm,Calm,-,N/A,,Mostly Cloudy,0,2013-02-23 03:15:00
10:35 PM,46.4,42.8,87,30.00,7.0,Calm,Calm,-,N/A,,Scattered Clouds,0,2013-02-23 03:35:00
10:55 PM,46.4,42.8,87,30.00,7.0,Calm,Calm,-,N/A,,Mostly Cloudy,0,2013-02-23 03:55:00
11:15 PM,46.4,42.8,87,30.00,10.0,WSW,3.5,-,N/A,,Scattered Clouds,240,2013-02-23 04:15:00
11:35 PM,46.4,42.8,87,30.00,10.0,WSW,3.5,-,N/A,,Mostly Cloudy,250,2013-02-23 04:35:00
11:55 PM,46.4,42.8,87,30.01,7.0,SW,6.9,-,N/A,,Overcast,230,2013-02-23 04:55:00